GW1402 Weather Reports


time (UTC)temp
C
wind
direction
speed
KPH
gust
KPH
rain 1hr
cm
rain 24hr
cm
rain mn
cm
humidity
%
barometer
mb
20260505125020 8 22 1.6 4.8 0.00 0.00 0.00 59 1418.6
20260505122122 9 90 11.3 17.7 0.00 0.00 0.00 54 1418.1
20260505121121 10 77 9.7 14.5 0.00 0.00 0.00 54 1418.1
20260505115120 10 72 14.5 19.3 0.00 0.00 0.00 52 1417.6
20260505114122 10 81 16.1 22.5 0.00 0.00 0.00 52 1417.8
20260505113219 10 72 16.1 22.5 0.00 0.00 0.00 51 1417.8
20260505112235 11 81 25.7 35.4 0.00 0.00 0.00 52 1417.5
20260505111221 11 85 22.5 32.2 0.00 0.00 0.00 51 1417.4
20260505110237 11 83 22.5 30.6 0.00 0.00 0.00 52 1417.3
20260505101422 11 89 19.3 33.8 0.00 0.00 0.00 52 1416.3
20260505100419 11 87 19.3 27.4 0.00 0.00 0.00 53 1416.5
20260505094520 11 84 14.5 22.5 0.00 0.00 0.00 53 1416.4
20260505093619 11 86 11.3 16.1 0.00 0.00 0.00 54 1416.5
20260505092622 11 89 14.5 20.9 0.00 0.00 0.00 51 1416.3
20260505091719 11 80 19.3 27.4 0.00 0.00 0.00 52 1415.8
20260505090721 11 68 24.1 33.8 0.00 0.00 0.00 53 1415.6
20260505084721 12 57 16.1 24.1 0.00 0.00 0.00 51 1415.5
20260505082721 11 76 22.5 32.2 0.00 0.00 0.00 53 1415.5
20260505081818 10 82 11.3 17.7 0.00 0.00 0.00 57 1415.4
20260505075821 11 87 8.0 9.7 0.00 0.00 0.00 52 1415.4
20260505074822 11 70 11.3 14.5 0.00 0.00 0.00 51 1415.3
20260505073821 12 57 9.7 12.9 0.00 0.00 0.00 48 1415.4
20260505071920 11 360 0.0 1.6 0.00 0.00 0.00 52 1415.4
20260505070934 11 90 3.2 4.8 0.00 0.00 0.00 53 1415.2
20260505070021 12 315 0.0 0.0 0.00 0.00 0.00 48 1415.2
20260505065119 12 315 0.0 0.0 0.00 0.00 0.00 47 1415.2
20260505064219 12 337 1.6 1.6 0.00 0.00 0.00 47 1415.1
20260505063220 12 336 3.2 8.0 0.00 0.00 0.00 49 1415.2
20260505062220 12 37 6.4 9.7 0.00 0.00 0.00 48 1414.9
20260505062121 12 49 8.0 9.7 0.00 0.00 0.00 47 1415.0
20260505061121 13 258 6.4 9.7 0.00 0.00 0.00 45 1414.4
20260505060220 13 247 14.5 17.7 0.00 0.00 0.00 45 1414.1
20260505055242 13 247 12.9 14.5 0.00 0.00 0.00 44 1414.3
20260505054341 14 247 11.3 12.9 0.00 0.00 0.00 39 1414.3
20260505053325 14 270 11.3 11.3 0.00 0.00 0.00 39 1414.3
20260505052341 13 270 9.7 9.7 0.00 0.00 0.00 41 1414.3
20260505050425 13 360 0.0 0.0 0.00 0.00 0.00 42 1414.8
20260505041626 14 225 12.9 14.5 0.00 0.00 0.00 46 1414.1
20260505040624 13 225 11.3 12.9 0.00 0.00 0.00 49 1414.0
20260505035624 13 225 8.0 8.0 0.00 0.00 0.00 52 1413.7
20260505033625 14 202 6.4 6.4 0.00 0.00 0.00 46 1413.4
20260505032723 15 270 4.8 4.8 0.00 0.00 0.00 44 1413.2
20260505031726 15 270 6.4 6.4 0.00 0.00 0.00 43 1413.2
20260505030824 16 270 6.4 6.4 0.00 0.00 0.00 38 1412.9
20260505024825 16 292 8.0 8.0 0.00 0.00 0.00 39 1412.8
20260505023824 17 292 3.2 3.2 0.00 0.00 0.00 37 1412.5
20260505022825 18 292 3.2 4.8 0.00 0.00 0.00 35 1412.4
20260505021826 19 293 4.8 6.4 0.00 0.00 0.00 34 1412.2
20260505020826 20 315 4.8 4.8 0.00 0.00 0.00 30 1412.2
20260505015842 21 315 4.8 4.8 0.00 0.00 0.00 27 1412.3
20260505014826 22 315 4.8 6.4 0.00 0.00 0.00 25 1412.0
20260505013826 22 315 4.8 6.4 0.00 0.00 0.00 25 1412.1
20260505012826 23 315 3.2 4.8 0.00 0.00 0.00 23 1412.2
20260505011924 23 315 1.6 3.2 0.00 0.00 0.00 22 1412.1
20260505011825 23 315 3.2 4.8 0.00 0.00 0.00 22 1412.4
20260505010842 24 315 4.8 4.8 0.00 0.00 0.00 20 1412.3
20260505004941 25 304 1.6 1.6 0.00 0.00 0.00 18 1412.3
20260505004024 25 315 0.0 1.6 0.00 0.00 0.00 19 1412.3
20260505003025 25 319 3.2 4.8 0.00 0.00 0.00 20 1412.4
20260505002926 25 315 1.6 3.2 0.00 0.00 0.00 20 1412.4
20260505001926 25 315 3.2 6.4 0.00 0.00 0.00 19 1412.5
20260505001825 25 315 3.2 4.8 0.00 0.00 0.00 19 1412.5
20260505001725 25 315 3.2 3.2 0.00 0.00 0.00 18 1412.4
20260505000726 25 357 3.2 8.0 0.00 0.00 0.00 19 1412.4
20260504233824 25 292 4.8 6.4 0.00 0.00 0.00 18 1412.7
20260504233724 25 315 3.2 6.4 0.00 0.00 0.00 18 1412.5
20260504232723 25 292 6.4 6.4 0.00 0.00 0.00 17 1412.9
20260504231724 26 334 1.6 8.0 0.00 0.00 0.00 17 1412.9
20260504230724 25 348 4.8 6.4 0.00 0.00 0.00 19 1412.7
20260504224724 24 281 3.2 4.8 0.00 0.00 0.00 18 1413.0
20260504223724 25 270 6.4 6.4 0.00 0.00 0.00 19 1413.3
20260504222725 25 315 4.8 4.8 0.00 0.00 0.00 19 1413.2
20260504221824 25 258 3.2 6.4 0.00 0.00 0.00 20 1413.5
20260504220825 25 332 1.6 4.8 0.00 0.00 0.00 21 1413.8
20260504214925 25 247 6.4 6.4 0.00 0.00 0.00 20 1414.1
20260504213928 24 335 4.8 14.5 0.00 0.00 0.00 23 1414.4
20260504212925 24 225 6.4 6.4 0.00 0.00 0.00 20 1414.3
20260504212023 24 352 6.4 8.0 0.00 0.00 0.00 22 1414.9
20260504211024 23 272 3.2 4.8 0.00 0.00 0.00 22 1415.0
20260504210042 24 270 3.2 3.2 0.00 0.00 0.00 22 1415.2
20260504205025 24 339 1.6 4.8 0.00 0.00 0.00 20 1415.4
20260504204025 24 290 4.8 8.0 0.00 0.00 0.00 24 1415.4
20260504202025 23 304 3.2 4.8 0.00 0.00 0.00 26 1415.6
20260504201024 23 270 6.4 9.7 0.00 0.00 0.00 27 1415.7
20260504200025 23 266 6.4 9.7 0.00 0.00 0.00 29 1416.0
20260504195024 23 327 1.6 3.2 0.00 0.00 0.00 31 1416.2
20260504194026 22 84 1.6 3.2 0.00 0.00 0.00 31 1416.2
20260504193940 22 315 0.0 0.0 0.00 0.00 0.00 31 1416.3
20260504192926 22 247 4.8 8.0 0.00 0.00 0.00 31 1416.3
20260504190024 22 279 4.8 6.4 0.00 0.00 0.00 34 1416.7
20260504185024 21 315 0.0 3.2 0.00 0.00 0.00 36 1417.2
20260504184024 21 312 0.0 3.2 0.00 0.00 0.00 35 1417.5
20260504183026 20 292 1.6 4.8 0.00 0.00 0.00 37 1417.6
20260504182124 20 270 0.0 1.6 0.00 0.00 0.00 35 1417.9
20260504182025 20 270 1.6 3.2 0.00 0.00 0.00 35 1417.8
20260504181025 20 315 1.6 3.2 0.00 0.00 0.00 37 1418.1
20260504180124 20 266 4.8 6.4 0.00 0.00 0.00 36 1418.2
20260504175125 20 270 4.8 9.7 0.00 0.00 0.00 38 1418.3
20260504174124 18 331 0.0 4.8 0.00 0.00 0.00 40 1418.4
20260504172224 19 277 6.4 11.3 0.00 0.00 0.00 39 1418.5
20260504171224 18 273 3.2 4.8 0.00 0.00 0.00 39 1418.5
20260504150325 13 112 0.0 0.0 0.00 0.00 0.00 52 1419.6